Вернуться в каталог

STARLINK-37770

АктивенСвязьSSO
NORAD 69225·PAYLOAD·🇺🇸 United States

Запущен May 26, 2026 с Vandenberg Space Force Base

Loading…

Ближайшие Пролёты (ближайшие 24 часа)

TLE

СвежийSource: CelesTrak SupGP

Эпоха: Sep 15, 2026, 04:10 UTC

1 69225C 26115Q   26258.17409722 -.00059030  00000+0 -18328-2 0  2584
2 69225  97.2831 274.3651 0001543  93.5837 330.8876 15.33463033    19

Отслеживайте STARLINK-37770 в реальном времени с AllMySat

Download on the App Store